Date String (YYYY-MM-DD hh:mm:ss) UTC,Instrument flags,absolute air pressure of the measurement (hPa),sample flow rate (lpm),inlet stack bypass flow (lpm),air temperature of the measurement (°C),ambient temperature measured by the external sensor (°C),aerosol sample conditioner tube jacket temperature (°C),OPC LED temperature (°C),internal box temperature (°C),relative humidity of the measurement (%),span deviation,mass concentration of particles derived from Lorenz-Mie calculation of OPC scattering (μg/m³),mass concentration of particles derived from Lorenz-Mie calculation of OPC scattering (μg/m³),mass concentration of particles derived from Lorenz-Mie calculation of OPC scattering (μg/m³)
DateTimeUTC,F1_M11,P_M11,Q1_M11,Q2_M11,T1_M11,T2_M11,T3_M11,T4_M11,T5_M11,U1_M11,ZSPAN_M11,X2_M11,X0_M11,X1_M11
2023-09-20 20:00:00,SystemResetWarning,0827.8,5.00,000.00,027.5,024.4,000.0,035.9,028.9,18.4,0000.0,0003.57,0010.27,0002.61
2023-09-20 20:01:00,SystemResetWarning,0827.8,5.01,000.00,027.5,024.7,000.0,035.9,028.9,18.3,0000.0,0003.60,0010.82,0002.62
2023-09-20 20:02:00,SystemResetWarning,0827.8,4.99,000.00,027.5,025.1,000.0,035.9,029.0,18.3,0000.0,0003.60,0011.30,0002.63
2023-09-20 20:03:00,SystemResetWarning,0827.8,4.99,000.00,027.5,025.5,000.0,035.9,029.1,18.5,0000.0,0003.61,0011.61,0002.64
2023-09-20 20:04:00,SystemResetWarning,0827.8,5.00,000.00,027.6,025.9,000.0,035.9,029.2,18.0,0000.0,0003.57,0011.90,0002.61
2023-09-20 20:05:00,SystemResetWarning,0827.7,5.00,000.00,027.6,026.2,000.0,035.9,029.3,18.9,0000.0,0003.59,0011.81,0002.60
2023-09-20 20:06:00,SystemResetWarning,0827.8,5.01,000.00,027.7,026.5,000.0,035.9,029.4,18.7,0000.0,0003.54,0011.95,0002.57
2023-09-20 20:07:00,SystemResetWarning,0827.8,5.00,000.00,027.7,026.7,000.0,035.9,029.5,18.9,0000.0,0003.52,0011.86,0002.53
2023-09-20 20:08:00,SystemResetWarning,0827.8,5.00,000.00,027.8,026.9,000.0,036.0,029.5,17.5,0000.0,0003.54,0011.96,0002.52
2023-09-20 20:09:00,SystemResetWarning,0827.8,5.00,000.00,027.8,027.0,000.0,036.0,029.6,17.5,0000.0,0003.52,0012.06,0002.49
2023-09-20 20:10:00,SystemResetWarning,0827.8,4.98,000.00,027.8,026.1,000.0,036.0,029.4,16.8,0000.0,0003.49,0011.80,0002.47
2023-09-20 20:11:00,SystemResetWarning,0827.7,5.00,000.00,027.7,024.5,000.0,036.0,028.9,17.0,0000.0,0003.42,0010.83,0002.44
2023-09-20 20:12:00,SystemResetWarning,0827.7,5.00,000.00,027.6,024.2,000.0,035.9,028.9,16.8,0000.0,0003.40,0010.47,0002.43
2023-09-20 20:13:00,SystemResetWarning,0827.7,5.01,000.00,027.6,024.5,000.0,035.9,028.9,17.1,0000.0,0003.37,0010.08,0002.40
2023-09-20 20:14:00,SystemResetWarning,0827.7,5.01,000.00,027.6,024.9,000.0,035.9,029.0,18.1,0000.0,0003.30,0009.13,0002.37
2023-09-20 20:15:00,SystemResetWarning,0827.7,5.00,000.00,027.6,025.3,000.0,035.9,029.1,17.3,0000.0,0003.32,0009.18,0002.38
2023-09-20 20:16:00,SystemResetWarning,0827.7,5.00,000.00,027.6,025.7,000.0,035.9,029.2,16.9,0000.0,0003.31,0009.62,0002.40
2023-09-20 20:17:00,SystemResetWarning,0827.7,5.00,000.00,027.6,026.1,000.0,036.0,029.3,16.8,0000.0,0003.35,0009.08,0002.42
2023-09-20 20:18:00,SystemResetWarning,0827.7,4.99,000.00,027.7,026.3,000.0,036.0,029.4,17.0,0000.0,0003.37,0009.12,0002.44
2023-09-20 20:19:00,SystemResetWarning,0827.7,5.00,000.00,027.7,026.6,000.0,036.0,029.5,16.8,0000.0,0003.35,0009.60,0002.46
2023-09-20 20:20:00,SystemResetWarning,0827.7,5.01,000.00,027.8,026.8,000.0,036.0,029.5,17.0,0000.0,0003.32,0009.54,0002.47
2023-09-20 20:21:00,SystemResetWarning,0827.7,5.00,000.00,027.8,027.0,000.0,036.1,029.6,17.0,0000.0,0003.33,0009.61,0002.47
2023-09-20 20:22:00,SystemResetWarning,0827.7,4.98,000.00,027.9,026.5,000.0,036.1,029.5,17.6,0000.0,0003.32,0009.71,0002.46
2023-09-20 20:23:00,SystemResetWarning,0827.6,5.00,000.00,027.8,024.8,000.0,036.0,029.1,17.6,0000.0,0003.28,0009.34,0002.45
2023-09-20 20:24:00,SystemResetWarning,0827.5,5.00,000.00,027.7,024.2,000.0,036.0,029.0,17.1,0000.0,0003.27,0008.99,0002.45
2023-09-20 20:25:00,SystemResetWarning,0827.5,5.01,000.00,027.6,024.4,000.0,035.9,029.0,17.6,0000.0,0003.32,0009.98,0002.46
2023-09-20 20:26:00,SystemResetWarning,0827.5,5.00,000.00,027.6,024.8,000.0,036.0,029.0,17.6,0000.0,0003.32,0009.61,0002.46
2023-09-20 20:27:00,SystemResetWarning,0827.5,4.99,000.00,027.6,025.2,000.0,036.0,029.1,17.6,0000.0,0003.30,0008.78,0002.45
2023-09-20 20:28:00,SystemResetWarning,0827.5,4.99,000.00,027.6,025.6,000.0,036.0,029.2,17.4,0000.0,0003.26,0008.45,0002.45
2023-09-20 20:29:00,SystemResetWarning,0827.5,5.00,000.00,027.7,026.0,000.0,036.0,029.3,17.3,0000.0,0003.29,0008.63,0002.46
2023-09-20 20:30:00,SystemResetWarning,0827.5,5.00,000.00,027.7,026.3,000.0,036.0,029.4,17.6,0000.0,0003.34,0008.42,0002.47
2023-09-20 20:31:00,SystemResetWarning,0827.5,5.01,000.00,027.8,026.6,000.0,036.0,029.5,18.1,0000.0,0003.38,0008.39,0002.47
2023-09-20 20:32:00,SystemResetWarning,0827.5,4.99,000.00,027.8,026.8,000.0,036.1,029.5,17.8,0000.0,0003.38,0008.83,0002.48
2023-09-20 20:33:00,SystemResetWarning,0827.6,4.99,000.00,027.9,026.6,000.0,036.1,029.5,17.2,0000.0,0003.39,0008.67,0002.48
2023-09-20 20:34:00,SystemResetWarning,0827.4,4.99,000.00,027.8,025.2,000.0,036.0,029.1,17.2,0000.0,0003.41,0008.94,0002.48
2023-09-20 20:35:00,SystemResetWarning,0827.4,5.01,000.00,027.7,024.2,000.0,036.0,028.9,17.8,0000.0,0003.45,0009.34,0002.49
2023-09-20 20:36:00,SystemResetWarning,0827.3,5.01,000.00,027.6,024.4,000.0,036.0,029.0,17.9,0000.0,0003.41,0008.95,0002.48
2023-09-20 20:37:00,SystemResetWarning,0827.3,5.00,000.00,027.6,024.8,000.0,036.0,029.0,18.1,0000.0,0003.38,0008.37,0002.48
2023-09-20 20:38:00,SystemResetWarning,0827.3,5.00,000.00,027.6,025.2,000.0,036.0,029.1,18.7,0000.0,0003.35,0008.30,0002.47
2023-09-20 20:39:00,SystemResetWarning,0827.4,4.99,000.00,027.6,025.6,000.0,036.0,029.2,18.5,0000.0,0003.36,0008.51,0002.49
2023-09-20 20:40:00,SystemResetWarning,0827.4,5.00,000.00,027.7,026.0,000.0,036.0,029.3,17.3,0000.0,0003.39,0008.98,0002.51
2023-09-20 20:41:00,SystemResetWarning,0827.4,5.00,000.00,027.7,026.3,000.0,036.0,029.4,17.4,0000.0,0003.34,0009.00,0002.50
2023-09-20 20:42:00,SystemResetWarning,0827.4,5.00,000.00,027.8,026.5,000.0,036.0,029.5,17.4,0000.0,0003.33,0009.28,0002.50
2023-09-20 20:43:00,SystemResetWarning,0827.4,5.00,000.00,027.8,026.8,000.0,036.0,029.5,17.1,0000.0,0003.31,0009.11,0002.51
2023-09-20 20:44:00,SystemResetWarning,0827.4,4.99,000.00,027.9,026.8,000.0,036.1,029.6,17.1,0000.0,0003.30,0009.11,0002.49
2023-09-20 20:45:00,SystemResetWarning,0827.3,4.98,000.00,027.8,025.5,000.0,036.0,029.1,16.6,0000.0,0003.27,0008.82,0002.48
2023-09-20 20:46:00,SystemResetWarning,0827.3,5.01,000.00,027.7,024.2,000.0,036.0,028.9,17.2,0000.0,0003.26,0008.95,0002.47
2023-09-20 20:47:00,SystemResetWarning,0827.3,5.02,000.00,027.6,024.3,000.0,035.9,029.0,17.8,0000.0,0003.24,0008.90,0002.46
2023-09-20 20:48:00,SystemResetWarning,0827.2,4.99,000.00,027.6,024.6,000.0,035.9,029.0,17.9,0000.0,0003.24,0008.92,0002.44
2023-09-20 20:49:00,SystemResetWarning,0827.3,4.99,000.00,027.6,025.0,000.0,035.9,029.1,17.3,0000.0,0003.23,0008.90,0002.42
2023-09-20 20:50:00,SystemResetWarning,0827.3,5.00,000.00,027.6,025.4,000.0,035.9,029.1,17.0,0000.0,0003.20,0008.96,0002.38
2023-09-20 20:51:00,SystemResetWarning,0827.3,5.01,000.00,027.6,025.8,000.0,036.0,029.2,17.0,0000.0,0003.14,0008.78,0002.34
2023-09-20 20:52:00,SystemResetWarning,0827.3,5.01,000.00,027.7,026.1,000.0,036.0,029.3,16.7,0000.0,0003.11,0008.81,0002.33
2023-09-20 20:53:00,SystemResetWarning,0827.3,5.00,000.00,027.7,026.4,000.0,036.0,029.4,16.9,0000.0,0003.09,0008.79,0002.31
2023-09-20 20:54:00,SystemResetWarning,0827.3,5.01,000.00,027.8,026.6,000.0,036.0,029.5,17.2,0000.0,0003.09,0009.42,0002.31
2023-09-20 20:55:00,SystemResetWarning,0827.2,5.00,000.00,027.8,026.7,000.0,036.0,029.5,17.4,0000.0,0003.11,0009.93,0002.30
2023-09-20 20:56:00,SystemResetWarning,0827.3,4.98,000.00,027.8,025.6,000.0,036.0,029.2,17.9,0000.0,0003.09,0010.16,0002.30
2023-09-20 20:57:00,SystemResetWarning,0827.3,5.01,000.00,027.7,024.2,000.0,036.0,028.9,17.6,0000.0,0003.07,0010.97,0002.29
2023-09-20 20:58:00,SystemResetWarning,0827.3,5.01,000.00,027.6,024.1,000.0,035.9,028.9,17.6,0000.0,0003.08,0010.65,0002.30
2023-09-20 20:59:00,SystemResetWarning,0827.3,5.00,000.00,027.5,024.4,000.0,035.9,028.9,17.0,0000.0,0003.05,0011.20,0002.30
